Bangor, ME

2:57 PM EST on December 07, 2019 (GMT -0500)
Bangor International

Weather History for KBGR - October, 2019

Change the Weather History Date:

Thursday, October 3, 2019

  Actual Average Record
Temperature  
Mean Temperature 44 °F 52 °F  
Max Temperature 54 °F 63 °F 77 °F (2000)
Min Temperature 33 °F 41 °F 27 °F (1947)
Degree Days  
Heating Degree Days 21 13  
Month to date heating degree days 45 38  
Since 1 July heating degree days 259 310  
Cooling Degree Days 0 0  
Month to date cooling degree days 0 0  
Year to date cooling degree days 336 317  
Moisture  
Dew Point 34 °F    
Average Humidity 69    
Maximum Humidity 96    
Minimum Humidity 41    
Precipitation  
Precipitation T in 0.14 in 1.37 in (1961)
Month to date precipitation 0.26 0.42  
Year to date precipitation 39.28 30.50  
Snow  
Snow 0.00 in 0.00 in 0.00 in (2002)
Month to date snowfall 0.0 0.0  
Since 1 July snowfall 0.0 0.0  
Since 1 September snowfall 0.0 0.0  
Snow Depth 0.00 in    
Sea Level Pressure  
Sea Level Pressure 30.15 in    
Wind  
Wind Speed 4 mph (WNW)    
Max Wind Speed 18 mph    
Max Gust Speed 24 mph    
Visibility 10 miles    
Events Rain    
T = Trace of Precipitation, MM = Missing Value Source: NWS Daily Summary

Daily Weather History Graph

Daily Weather History Graph

Search for Another Location

Airport or City:

Astronomy

Oct. 03, 2019 Rise Set
Actual Time 6:35 AM EDT 6:12 PM EDT
Civil Twilight 6:06 AM EDT 6:41 PM EDT
Nautical Twilight 5:32 AM EDT 7:15 PM EDT
Astronomical Twilight 4:57 AM EDT 7:49 PM EDT
Moon 12:15 PM EDT (10/3) 9:36 PM EDT (10/3)
Length of Visible Light 12h 35m
Length of Day
11h 37m
Waxing Crescent, 29% of the Moon is Illuminated
Oct 3
Waxing Crescent
Oct 5
First Quarter
Oct 13
Full
Oct 21
Last Quarter
Oct 27
New

Hourly Weather History & Observations

Time (EDT) Temp. Windchill Dew Point Humidity Pressure Visibility Wind Dir Wind Speed Gust Speed Precip Events Conditions
12:53 AM 39.9 °F 37.8 °F 35.1 °F 83% 30.12 in 10.0 mi West 3.5 mph - N/A   Clear
1:53 AM 37.0 °F 31.6 °F 34.0 °F 89% 30.15 in 10.0 mi NNW 6.9 mph - N/A   Mostly Cloudy
2:53 AM 37.9 °F 35.5 °F 34.0 °F 86% 30.14 in 10.0 mi WNW 3.5 mph - N/A   Mostly Cloudy
3:53 AM 35.1 °F 32.2 °F 33.1 °F 92% 30.15 in 10.0 mi WNW 3.5 mph - N/A   Clear
4:53 AM 36.0 °F 33.3 °F 33.1 °F 89% 30.16 in 10.0 mi NW 3.5 mph - N/A   Scattered Clouds
5:53 AM 35.1 °F - 33.1 °F 92% 30.18 in 10.0 mi Calm Calm - N/A   Mostly Cloudy
6:53 AM 33.1 °F - 32.0 °F 96% 30.19 in 10.0 mi Calm Calm - N/A   Scattered Clouds
7:53 AM 39.0 °F - 35.1 °F 86% 30.23 in 10.0 mi Calm Calm - N/A   Scattered Clouds
8:53 AM 43.0 °F 39.5 °F 35.1 °F 74% 30.25 in 10.0 mi WNW 5.8 mph - N/A   Scattered Clouds
9:53 AM 46.9 °F - 30.0 °F 52% 30.22 in 10.0 mi North 10.4 mph 24.2 mph N/A   Scattered Clouds
10:53 AM 46.9 °F - 30.9 °F 54% 30.21 in 10.0 mi North 8.1 mph - N/A   Mostly Cloudy
11:53 AM 48.9 °F - 30.0 °F 48% 30.21 in 10.0 mi North 5.8 mph - N/A   Mostly Cloudy
12:53 PM 51.1 °F - 30.0 °F 44% 30.18 in 10.0 mi NE 8.1 mph - N/A   Mostly Cloudy
1:53 PM 51.1 °F - 30.0 °F 44% 30.15 in 10.0 mi Variable 4.6 mph - N/A   Mostly Cloudy
2:53 PM 52.0 °F - 30.9 °F 45% 30.14 in 10.0 mi NNW 6.9 mph - N/A   Scattered Clouds
3:53 PM 53.1 °F - 30.9 °F 43% 30.13 in 10.0 mi NNE 4.6 mph - N/A   Mostly Cloudy
4:53 PM 50.0 °F - 32.0 °F 50% 30.13 in 10.0 mi SW 3.5 mph - N/A   Mostly Cloudy
5:53 PM 46.9 °F - 37.9 °F 71% 30.11 in 10.0 mi Calm Calm - N/A   Mostly Cloudy
6:53 PM 46.9 °F - 37.9 °F 71% 30.11 in 10.0 mi South 3.5 mph - N/A   Mostly Cloudy
7:53 PM 48.0 °F - 37.9 °F 68% 30.10 in 10.0 mi South 6.9 mph - N/A   Overcast
8:53 PM 46.9 °F - 39.0 °F 74% 30.09 in 10.0 mi South 8.1 mph - N/A   Mostly Cloudy
9:53 PM 46.0 °F 42.5 °F 39.0 °F 76% 30.09 in 10.0 mi SSW 6.9 mph - N/A   Mostly Cloudy
10:53 PM 46.0 °F 43.1 °F 39.0 °F 76% 30.06 in 10.0 mi South 5.8 mph - N/A   Overcast
11:53 PM 46.0 °F 43.1 °F 39.9 °F 79% 30.03 in 10.0 mi South 5.8 mph - 0.00 in Rain Light Rain